Location: Oshawa
(43.9000°N, 78.8670°W)
Time: 06:20:12
(UTC-04:00)

Cosmos 1500 - Visible Passes

Search period start: 23 March 2017 00:00
Search period end: 02 April 2017 00:00
Orbit: 502 x 525 km, 82.5° (Epoch: 21 March)

Date Brightness Start Highest point End Pass type
(mag) Time Alt. Az. Time Alt. Az. Time Alt. Az.
23 Mar 5.0 04:33:49 10° NNE 04:37:14 30° ENE 04:38:46 23° ESE visible
23 Mar 4.6 06:09:59 10° NW 06:12:42 19° W 06:13:39 17° WSW visible
24 Mar 5.3 04:18:26 10° NNE 04:21:40 25° ENE 04:22:08 24° E visible
24 Mar 4.4 05:54:11 10° NW 05:57:02 22° W 05:57:02 22° W visible
25 Mar 5.7 04:03:06 10° NNE 04:05:51 21° ENE 04:05:51 21° ENE visible
25 Mar 4.5 05:38:27 10° NNW 05:40:45 24° WNW 05:40:45 24° WNW visible
26 Mar 6.0 03:47:50 10° NNE 03:49:45 17° ENE 03:49:45 17° ENE visible
26 Mar 4.6 05:22:45 10° NNW 05:24:41 24° NW 05:24:41 24° NW visible
27 Mar 6.3 03:32:39 10° NE 03:33:48 13° NE 03:33:48 13° NE visible
27 Mar 4.9 05:07:06 10° NNW 05:08:44 22° NW 05:08:44 22° NW visible
28 Mar 6.6 03:17:40 10° NE 03:17:56 11° NE 03:17:56 11° NE visible
28 Mar 5.1 04:51:28 10° NNW 04:52:52 21° NNW 04:52:52 21° NNW visible
29 Mar 5.3 04:35:53 10° NNW 04:37:05 19° NNW 04:37:05 19° NNW visible
30 Mar 5.5 04:20:19 10° N 04:21:21 18° N 04:21:21 18° N visible
31 Mar 5.7 04:04:45 10° N 04:05:39 16° N 04:05:39 16° N visible
01 Apr 5.9 03:49:14 10° N 03:50:00 15° N 03:50:00 15° N visible
